TimeCST,TemperatureF,Dew PointF,Humidity,Sea Level PressureIn,VisibilityMPH,Wind Direction,Wind SpeedMPH,Gust SpeedMPH,PrecipitationIn,Events,Conditions,WindDirDegrees,DateUTC
12:15 AM,29.3,25.9,87,30.22,7.0,Calm,Calm,-,N/A,,Clear,0,2013-11-08 06:15:00
12:35 AM,29.3,25.9,87,30.22,7.0,WNW,3.5,-,N/A,,Clear,290,2013-11-08 06:35:00
12:55 AM,29.1,25.7,87,30.22,7.0,West,3.5,-,N/A,,Clear,270,2013-11-08 06:55:00
1:15 AM,28.4,25.5,89,30.22,5.0,West,3.5,-,N/A,,Clear,260,2013-11-08 07:15:00
1:35 AM,27.9,25.7,92,30.22,5.0,Calm,Calm,-,N/A,,Clear,0,2013-11-08 07:35:00
1:55 AM,27.5,25.7,93,30.23,4.0,West,3.5,-,N/A,,Clear,260,2013-11-08 07:55:00
2:15 AM,27.5,26.1,94,30.23,4.0,WSW,3.5,-,N/A,,Clear,250,2013-11-08 08:15:00
2:35 AM,25.5,23.9,94,30.23,3.0,WSW,4.6,-,N/A,,Clear,240,2013-11-08 08:35:00
2:55 AM,27.0,26.2,97,30.23,3.0,Calm,Calm,-,N/A,,Clear,0,2013-11-08 08:55:00
3:15 AM,26.6,25.7,96,30.24,2.5,SW,3.5,-,N/A,,Clear,230,2013-11-08 09:15:00
3:35 AM,26.2,25.5,97,30.24,2.5,Calm,Calm,-,N/A,,Clear,0,2013-11-08 09:35:00
3:55 AM,25.7,25.5,99,30.24,2.5,Calm,Calm,-,N/A,,Clear,0,2013-11-08 09:55:00
4:15 AM,26.8,26.8,100,30.24,2.5,Calm,Calm,-,N/A,,Clear,0,2013-11-08 10:15:00
4:35 AM,26.1,25.9,99,30.25,2.0,Calm,Calm,-,N/A,,Clear,0,2013-11-08 10:35:00
4:55 AM,26.2,26.2,100,30.26,1.8,Calm,Calm,-,N/A,,Mist,0,2013-11-08 10:55:00
5:15 AM,25.9,25.9,100,30.26,2.0,SW,3.5,-,N/A,,Clear,220,2013-11-08 11:15:00
5:35 AM,26.2,26.2,100,30.26,2.0,Calm,Calm,-,N/A,,Clear,0,2013-11-08 11:35:00
5:55 AM,26.1,26.1,100,30.26,2.0,SSW,3.5,-,N/A,,Clear,200,2013-11-08 11:55:00
6:15 AM,26.2,26.2,100,30.25,2.0,Calm,Calm,-,N/A,,Clear,0,2013-11-08 12:15:00
6:35 AM,25.9,25.9,100,30.26,2.5,SE,3.5,-,N/A,,Clear,140,2013-11-08 12:35:00
6:55 AM,24.8,24.8,100,30.26,2.0,SE,3.5,-,N/A,,Clear,130,2013-11-08 12:55:00
7:15 AM,25.7,25.7,100,30.27,2.0,SE,3.5,-,N/A,,Clear,130,2013-11-08 13:15:00
7:35 AM,26.4,26.4,100,30.27,3.0,SSE,3.5,-,N/A,,Clear,160,2013-11-08 13:35:00
7:55 AM,27.9,27.9,100,30.28,3.0,South,4.6,-,N/A,,Clear,170,2013-11-08 13:55:00
8:15 AM,28.9,28.8,99,30.28,3.0,South,5.8,-,N/A,,Clear,190,2013-11-08 14:15:00
8:35 AM,30.2,28.9,95,30.28,4.0,South,5.8,-,N/A,,Clear,190,2013-11-08 14:35:00
8:55 AM,31.6,29.3,91,30.28,5.0,South,5.8,-,N/A,,Clear,190,2013-11-08 14:55:00
9:15 AM,32.9,30.6,91,30.28,5.0,SSW,6.9,-,N/A,,Clear,210,2013-11-08 15:15:00
9:35 AM,34.3,30.7,87,30.27,7.0,SSW,8.1,-,N/A,,Clear,200,2013-11-08 15:35:00
9:55 AM,35.4,30.9,84,30.26,7.0,SSW,6.9,-,N/A,,Scattered Clouds,200,2013-11-08 15:55:00
10:15 AM,35.8,28.6,75,30.25,10.0,South,9.2,-,N/A,,Scattered Clouds,170,2013-11-08 16:15:00
10:35 AM,36.3,28.9,75,30.25,10.0,South,9.2,-,N/A,,Clear,180,2013-11-08 16:35:00
10:55 AM,36.9,29.1,74,30.24,10.0,South,10.4,-,N/A,,Clear,170,2013-11-08 16:55:00
11:15 AM,37.4,28.4,70,30.23,10.0,South,9.2,-,N/A,,Clear,170,2013-11-08 17:15:00
11:35 AM,38.3,28.6,68,30.22,10.0,South,8.1,-,N/A,,Clear,190,2013-11-08 17:35:00
11:55 AM,39.2,27.9,64,30.20,10.0,SSE,9.2,-,N/A,,Clear,160,2013-11-08 17:55:00
12:15 PM,39.4,28.2,64,30.20,10.0,South,8.1,-,N/A,,Clear,170,2013-11-08 18:15:00
12:35 PM,40.1,28.6,63,30.19,10.0,SSE,9.2,-,N/A,,Clear,160,2013-11-08 18:35:00
12:55 PM,40.1,28.2,63,30.18,10.0,South,9.2,-,N/A,,Clear,170,2013-11-08 18:55:00
1:15 PM,40.3,28.8,63,30.17,10.0,SSE,9.2,-,N/A,,Clear,150,2013-11-08 19:15:00
1:35 PM,41.0,28.6,61,30.16,10.0,SSE,10.4,-,N/A,,Clear,160,2013-11-08 19:35:00
1:55 PM,41.5,29.5,62,30.15,10.0,South,9.2,-,N/A,,Clear,170,2013-11-08 19:55:00
2:15 PM,41.9,29.7,62,30.14,10.0,South,11.5,-,N/A,,Clear,170,2013-11-08 20:15:00
2:35 PM,41.9,29.7,62,30.13,10.0,SSE,11.5,-,N/A,,Clear,150,2013-11-08 20:35:00
2:55 PM,41.9,30.0,63,30.13,10.0,SSE,12.7,-,N/A,,Clear,160,2013-11-08 20:55:00
3:15 PM,41.7,29.7,62,30.12,10.0,SSE,10.4,-,N/A,,Scattered Clouds,160,2013-11-08 21:15:00
3:35 PM,41.9,29.7,62,30.10,10.0,SE,10.4,-,N/A,,Overcast,140,2013-11-08 21:35:00
3:55 PM,41.5,30.4,65,30.08,10.0,SE,10.4,-,N/A,,Overcast,130,2013-11-08 21:55:00
4:15 PM,41.4,30.4,65,30.06,10.0,SE,10.4,-,N/A,,Scattered Clouds,130,2013-11-08 22:15:00
4:35 PM,41.2,30.7,66,30.06,10.0,SE,9.2,-,N/A,,Scattered Clouds,130,2013-11-08 22:35:00
4:55 PM,40.6,30.7,68,30.06,10.0,SE,9.2,-,N/A,,Clear,140,2013-11-08 22:55:00
5:15 PM,40.5,30.7,68,30.05,10.0,SE,9.2,-,N/A,,Clear,140,2013-11-08 23:15:00
5:35 PM,39.9,29.8,67,30.05,10.0,SE,9.2,-,N/A,,Clear,130,2013-11-08 23:35:00
5:55 PM,39.4,29.3,67,30.04,10.0,ESE,10.4,-,N/A,,Clear,120,2013-11-08 23:55:00
6:15 PM,39.9,29.3,66,30.02,10.0,ESE,12.7,-,N/A,,Clear,120,2013-11-09 00:15:00
6:35 PM,40.3,29.1,64,30.03,10.0,SE,13.8,-,N/A,,Clear,130,2013-11-09 00:35:00
6:55 PM,40.3,29.3,65,30.03,10.0,SE,12.7,-,N/A,,Scattered Clouds,130,2013-11-09 00:55:00
7:15 PM,40.6,28.9,63,30.02,10.0,SE,15.0,-,N/A,,Scattered Clouds,130,2013-11-09 01:15:00
7:35 PM,40.8,28.8,62,30.01,10.0,SE,13.8,19.6,N/A,,Mostly Cloudy,140,2013-11-09 01:35:00
7:55 PM,41.0,28.8,62,30.00,10.0,SE,16.1,20.7,N/A,,Mostly Cloudy,140,2013-11-09 01:55:00
8:15 PM,41.4,28.4,60,29.98,10.0,SE,17.3,25.3,N/A,,Mostly Cloudy,140,2013-11-09 02:15:00
8:35 PM,41.4,28.4,60,29.97,10.0,SSE,18.4,-,N/A,,Mostly Cloudy,150,2013-11-09 02:35:00
8:55 PM,41.5,28.0,59,29.96,10.0,SSE,18.4,23.0,N/A,,Scattered Clouds,150,2013-11-09 02:55:00
9:15 PM,41.9,28.2,58,29.95,10.0,SSE,18.4,24.2,N/A,,Mostly Cloudy,150,2013-11-09 03:15:00
9:35 PM,42.1,27.9,57,29.93,10.0,SSE,17.3,23.0,N/A,,Overcast,150,2013-11-09 03:35:00
9:55 PM,42.6,27.5,55,29.91,10.0,SSE,16.1,25.3,N/A,,Overcast,150,2013-11-09 03:55:00
10:15 PM,43.0,28.0,56,29.89,10.0,SSE,16.1,24.2,N/A,,Overcast,150,2013-11-09 04:15:00
10:35 PM,43.9,28.0,54,29.88,10.0,SSE,19.6,25.3,N/A,,Overcast,160,2013-11-09 04:35:00
10:55 PM,44.1,28.8,55,29.85,10.0,SSE,18.4,23.0,N/A,,Overcast,160,2013-11-09 04:55:00
11:15 PM,44.4,28.9,55,29.84,10.0,SSE,19.6,25.3,N/A,,Overcast,160,2013-11-09 05:15:00
11:35 PM,44.6,29.1,55,29.82,10.0,SSE,21.9,26.5,N/A,,Overcast,160,2013-11-09 05:35:00
11:55 PM,44.8,29.1,54,29.80,10.0,SSE,20.7,27.6,N/A,,Overcast,160,2013-11-09 05:55:00